sat.trackr.live / text

‹ back to catalog

FLOCK 4H-31

NORAD 66734 · 2025-276BW

PAYLOAD ACTIVE UNKNOWN

§ Identity

Operator
Country
US
Launch date
2025-11-28
Launch site
AFWTR
Launch vehicle
Mass (kg)
RCS (m²)

Purposes: earth_obs

External: N2YO · Heavens-Above · Gunter

§ Orbital elements

Epoch: 2026-09-19T23:00:47.447136Z

Period
94.70 min
Inclination
97.4091°
Eccentricity
0.0004945
Mean motion
15.20632752 rev/d
Perigee alt
500.5 km
Apogee alt
507.3 km
Semi-major
6,882.1 km
B*
2.0223e-4
RAAN
334.7234°
Arg perigee
62.6829°
Mean anomaly
297.4910°
Rev number
4,481

§ Raw data

FLOCK 4H-311 66734U 25276BW  26262.95888249  .00004369  00000+0  20223-3 0  99922 66734  97.4091 334.7234 0004945  62.6829 297.4910 15.20632752 44811

JSON: /api/v1/satellites/66734 · /tle

For live sub-satellite position, see the globe view (requires WebGL).

§ Visibility from observer

Set your observer location to see the next 7 days of passes ≥ 10°. The values pass through the URL so the page stays shareable.

No JS? Fill the form by hand. The geolocation button needs JavaScript.